When you browse on this site, cookies collect data to enhance your experience and personalize the content and advertising you see.
Visit our Privacy Policy to learn more. By continuing to use the site, you agree to this use of cookies and data.
  • In Switzerland
  • List of Countries
  • For 7 days
  • Water Temperature
  • Weather Map
  • Weather Widgets
  • user-avatar
    Login

    Hourly Weather Lezhe

    Today, 4 June, Thursday

    Time Temperature Precipitation Wind Pressure Humidity
    00:00 +13°C° 0 mm 2 mps 733 mmHg 71%
    01:00 +13°C° 0 mm 2 mps 733 mmHg 69%
    02:00 +13°C° 0 mm 2 mps 733 mmHg 68%
    03:00 +13°C° 0 mm 2 mps 733 mmHg 67%
    04:00 +13°C° 0 mm 2 mps 733 mmHg 66%
    05:00 +15°C° 0 mm 2 mps 733 mmHg 62%
    06:00 +17°C° 0 mm 2 mps 733 mmHg 58%
    07:00 +19°C° 0 mm 2 mps 733 mmHg 54%
    08:00 +20°C° 0 mm 2 mps 733 mmHg 52%
    09:00 +23°C° 0 mm 2 mps 733 mmHg 49%
    10:00 +24°C° 0 mm 3 mps 734 mmHg 47%
    11:00 +23°C° 0 mm 4 mps 734 mmHg 48%
    12:00 +25°C° 0 mm 4 mps 734 mmHg 49%
    13:00 +25°C° 0 mm 5 mps 734 mmHg 50%
    14:00 +23°C° 0 mm 5 mps 733 mmHg 51%
    15:00 +23°C° 0 mm 5 mps 733 mmHg 52%
    16:00 +23°C° 0 mm 5 mps 733 mmHg 53%
    17:00 +21°C° 0 mm 4 mps 733 mmHg 60%
    18:00 +19°C° 0 mm 3 mps 733 mmHg 68%
    19:00 +17°C° 0 mm 3 mps 733 mmHg 76%
    20:00 +16°C° 0 mm 3 mps 733 mmHg 78%
    21:00 +16°C° 0 mm 2 mps 733 mmHg 80%
    22:00 +15°C° 0 mm 2 mps 734 mmHg 81%
    23:00 +15°C° 0 mm 2 mps 733 mmHg 80%

    Tomorrow, 5 June, Friday

    Time Temperature Precipitation Wind Pressure Humidity
    00:00 +15°C° 0 mm 2 mps 733 mmHg 78%
    01:00 +15°C° 0 mm 2 mps 733 mmHg 77%
    02:00 +15°C° 0 mm 2 mps 733 mmHg 72%
    03:00 +15°C° 0 mm 2 mps 733 mmHg 67%
    04:00 +16°C° 0 mm 2 mps 732 mmHg 62%
    05:00 +17°C° 0 mm 2 mps 733 mmHg 63%
    06:00 +17°C° 0 mm 2 mps 733 mmHg 63%
    07:00 +18°C° 0 mm 2 mps 733 mmHg 64%
    08:00 +18°C° 0.2 mm 3 mps 733 mmHg 65%
    09:00 +18°C° 0.2 mm 4 mps 733 mmHg 67%
    10:00 +18°C° 0.2 mm 4 mps 733 mmHg 68%
    11:00 +18°C° 1.2 mm 4 mps 732 mmHg 75%
    12:00 +17°C° 1.2 mm 3 mps 732 mmHg 82%
    13:00 +17°C° 1.2 mm 2 mps 731 mmHg 89%
    14:00 +17°C° 1.6 mm 2 mps 731 mmHg 91%
    15:00 +17°C° 1.6 mm 2 mps 731 mmHg 93%
    16:00 +16°C° 1.6 mm 2 mps 731 mmHg 95%
    17:00 +16°C° 0.3 mm 3 mps 731 mmHg 94%
    18:00 +16°C° 0.3 mm 3 mps 731 mmHg 93%
    19:00 +16°C° 0.3 mm 3 mps 731 mmHg 91%
    20:00 +16°C° 0.2 mm 3 mps 731 mmHg 90%
    21:00 +16°C° 0.2 mm 2 mps 731 mmHg 89%
    22:00 +15°C° 0.2 mm 2 mps 731 mmHg 88%
    23:00 +15°C° 0.2 mm 2 mps 731 mmHg 88%

    Day after tomorrow, 6 June, Saturday

    Time Temperature Precipitation Wind Pressure Humidity
    00:00 +15°C° 0.2 mm 2 mps 731 mmHg 87%
    01:00 +15°C° 0.2 mm 2 mps 731 mmHg 87%
    02:00 +15°C° 0 mm 2 mps 731 mmHg 87%
    03:00 +15°C° 0 mm 1 mps 731 mmHg 87%
    04:00 +15°C° 0 mm 1 mps 730 mmHg 86%
    05:00 +15°C° 0 mm 1 mps 731 mmHg 86%
    06:00 +16°C° 0 mm 1 mps 731 mmHg 86%
    07:00 +16°C° 0 mm 1 mps 731 mmHg 85%
    08:00 +18°C° 0.1 mm 1 mps 732 mmHg 82%
    09:00 +19°C° 0.1 mm 1 mps 732 mmHg 78%
    10:00 +20°C° 0.1 mm 1 mps 732 mmHg 75%
    11:00 +21°C° 0.1 mm 1 mps 732 mmHg 71%
    12:00 +22°C° 0.1 mm 1 mps 732 mmHg 68%
    13:00 +23°C° 0.1 mm 2 mps 732 mmHg 65%
    14:00 +21°C° 0.1 mm 2 mps 732 mmHg 66%
    15:00 +21°C° 0.1 mm 2 mps 731 mmHg 68%
    16:00 +21°C° 0.1 mm 2 mps 731 mmHg 70%
    17:00 +21°C° 0 mm 1 mps 731 mmHg 75%
    18:00 +19°C° 0 mm 1 mps 732 mmHg 81%
    19:00 +16°C° 0 mm 0 mps 732 mmHg 87%
    20:00 +16°C° 0 mm 1 mps 732 mmHg 88%
    21:00 +16°C° 0 mm 1 mps 732 mmHg 89%
    22:00 +15°C° 0 mm 1 mps 733 mmHg 91%
    23:00 +15°C° 0 mm 1 mps 733 mmHg 92%

    7 June, Sunday

    Time Temperature Precipitation Wind Pressure Humidity
    00:00 +15°C° 0 mm 2 mps 733 mmHg 93%
    01:00 +15°C° 0 mm 2 mps 733 mmHg 93%
    02:00 +15°C° 0 mm 2 mps 733 mmHg 93%
    03:00 +15°C° 0 mm 2 mps 733 mmHg 92%
    04:00 +14°C° 0 mm 2 mps 733 mmHg 91%
    05:00 +16°C° 0 mm 1 mps 733 mmHg 85%
    06:00 +19°C° 0 mm 1 mps 733 mmHg 80%
    07:00 +20°C° 0 mm 1 mps 734 mmHg 74%
    08:00 +22°C° 0 mm 1 mps 734 mmHg 70%
    09:00 +23°C° 0 mm 2 mps 734 mmHg 66%
    10:00 +24°C° 0 mm 2 mps 734 mmHg 62%
    11:00 +24°C° 0 mm 2 mps 734 mmHg 61%
    12:00 +25°C° 0 mm 2 mps 734 mmHg 60%
    13:00 +25°C° 0 mm 3 mps 734 mmHg 59%
    14:00 +25°C° 0.1 mm 2 mps 734 mmHg 61%
    15:00 +25°C° 0.1 mm 2 mps 734 mmHg 63%
    16:00 +24°C° 0.1 mm 2 mps 733 mmHg 64%
    17:00 +23°C° 0 mm 2 mps 734 mmHg 71%
    18:00 +21°C° 0 mm 1 mps 734 mmHg 78%
    19:00 +20°C° 0 mm 1 mps 734 mmHg 85%
    20:00 +19°C° 0 mm 1 mps 734 mmHg 86%
    21:00 +19°C° 0 mm 1 mps 734 mmHg 87%
    22:00 +18°C° 0 mm 1 mps 735 mmHg 88%
    23:00 +18°C° 0 mm 1 mps 735 mmHg 88%

    8 June, Monday

    Time Temperature Precipitation Wind Pressure Humidity
    00:00 +18°C° 0 mm 1 mps 735 mmHg 88%
    01:00 +16°C° 0 mm 1 mps 734 mmHg 88%
    02:00 +16°C° 0 mm 1 mps 734 mmHg 88%
    03:00 +16°C° 0 mm 1 mps 734 mmHg 87%
    04:00 +16°C° 0 mm 1 mps 734 mmHg 87%
    05:00 +19°C° 0 mm 1 mps 734 mmHg 81%
    06:00 +21°C° 0 mm 1 mps 734 mmHg 75%
    07:00 +23°C° 0 mm 1 mps 734 mmHg 68%
    08:00 +23°C° 0.2 mm 1 mps 734 mmHg 66%
    09:00 +24°C° 0.2 mm 2 mps 734 mmHg 64%
    10:00 +25°C° 0.2 mm 2 mps 734 mmHg 62%
    11:00 +25°C° 0.6 mm 2 mps 734 mmHg 62%
    12:00 +25°C° 0.6 mm 2 mps 734 mmHg 63%
    13:00 +26°C° 0.6 mm 2 mps 734 mmHg 63%
    14:00 +26°C° 0.3 mm 2 mps 733 mmHg 61%
    15:00 +26°C° 0.3 mm 1 mps 733 mmHg 60%
    16:00 +26°C° 0.3 mm 1 mps 733 mmHg 58%
    17:00 +24°C° 0.1 mm 1 mps 733 mmHg 65%
    18:00 +22°C° 0.1 mm 1 mps 733 mmHg 72%
    19:00 +21°C° 0.1 mm 1 mps 734 mmHg 79%
    20:00 +20°C° 0.1 mm 1 mps 734 mmHg 82%
    21:00 +19°C° 0.1 mm 1 mps 734 mmHg 84%
    22:00 +18°C° 0.1 mm 1 mps 734 mmHg 87%
    23:00 +19°C° 0 mm 1 mps 734 mmHg 86%

    9 June, Tuesday

    Time Temperature Precipitation Wind Pressure Humidity
    00:00 +19°C° 0 mm 1 mps 734 mmHg 85%
    01:00 +19°C° 0 mm 1 mps 734 mmHg 83%
    02:00 +19°C° 0.2 mm 1 mps 734 mmHg 84%
    03:00 +19°C° 0.2 mm 1 mps 734 mmHg 84%
    04:00 +18°C° 0.2 mm 1 mps 734 mmHg 85%
    05:00 +20°C° 0 mm 1 mps 734 mmHg 79%
    06:00 +21°C° 0 mm 1 mps 734 mmHg 74%
    07:00 +23°C° 0 mm 1 mps 734 mmHg 69%
    08:00 +24°C° 0.1 mm 1 mps 734 mmHg 64%
    09:00 +25°C° 0.1 mm 2 mps 734 mmHg 60%
    10:00 +26°C° 0.1 mm 2 mps 734 mmHg 56%
    11:00 +26°C° 0.3 mm 2 mps 734 mmHg 56%
    12:00 +26°C° 0.3 mm 2 mps 734 mmHg 57%
    13:00 +27°C° 0.3 mm 2 mps 734 mmHg 58%
    14:00 +26°C° 0.3 mm 2 mps 734 mmHg 59%
    15:00 +26°C° 0.3 mm 2 mps 734 mmHg 60%
    16:00 +26°C° 0.3 mm 2 mps 734 mmHg 61%
    17:00 +24°C° 0.1 mm 1 mps 734 mmHg 68%
    18:00 +22°C° 0.1 mm 1 mps 734 mmHg 74%
    19:00 +19°C° 0.1 mm 0 mps 734 mmHg 80%
    20:00 +18°C° 0 mm 0 mps 734 mmHg 81%
    21:00 +20°C° 0 mm 1 mps 735 mmHg 82%
    22:00 +19°C° 0 mm 1 mps 735 mmHg 82%
    23:00 +19°C° 0 mm 1 mps 735 mmHg 82%
    Show more